Hayward, WI

7:40 PM CST on December 07, 2016 (GMT -0600)
Sawyer County

Weather History for KHYR - January, 2013

Change the Weather History Date:

Monday, January 28, 2013

  Actual Average Record
Temperature  
Mean Temperature 28 °F -  
Max Temperature 35 °F 26 °F 46 °F (2008)
Min Temperature 21 °F -3 °F -22 °F (2014)
Degree Days  
Heating Degree Days 37    
Moisture  
Dew Point 25 °F    
Average Humidity 87    
Maximum Humidity 96    
Minimum Humidity 75    
Precipitation  
Precipitation 0.02 in - - ()
Sea Level Pressure  
Sea Level Pressure 29.84 in    
Wind  
Wind Speed 0 mph (SSE)    
Max Wind Speed 6 mph    
Max Gust Speed -    
Visibility 5 miles    
Events Snow    
Averages and records for this station are not official NWS values.
T = Trace of Precipitation, MM = Missing Value Source: NWS Daily Summary

Daily Weather History Graph

Daily Weather History Graph

Search for Another Location

Airport or City:

Trip Planner

Search our weather history database for the weather conditions in past years. The results will help you decide how hot, cold, wet, or windy it might be!

Date:

Astronomy

Jan. 28, 2013 Rise Set
Actual Time 7:32 AM CST 5:05 PM CST
Civil Twilight 7:00 AM CST 5:38 PM CST
Nautical Twilight 6:24 AM CST 6:14 PM CST
Astronomical Twilight 5:48 AM CST 6:49 PM CST
Moon 7:10 PM CST (1/28) 7:50 AM CST (1/28)
Length of Visible Light 10h 37m
Length of Day
9h 33m
Full, 98% of the Moon is Illuminated
Jan 28
Full
Feb 3
Last Quarter
Feb 10
New
Feb 17
First Quarter
Feb 25
Full

Hourly Weather History & Observations

Time (CST) Temp. Windchill Dew Point Humidity Pressure Visibility Wind Dir Wind Speed Gust Speed Precip Events Conditions
12:06 AM 28.4 °F - 24.8 °F 86% 29.81 in 1.8 mi Calm Calm - 0.00 in Snow Light Snow
12:13 AM 28.4 °F - 24.8 °F 86% 29.81 in 1.0 mi Calm Calm - 0.00 in Snow Light Snow
12:35 AM 28.4 °F - 24.8 °F 86% 29.81 in 1.8 mi Calm Calm - 0.01 in Snow Light Snow
12:44 AM 28.4 °F - 24.8 °F 86% 29.81 in 2.0 mi Calm Calm - 0.01 in Snow Light Snow
12:53 AM 28.0 °F - 25.0 °F 88% 29.86 in 1.8 mi Calm Calm - 0.01 in Snow Light Snow
1:07 AM 28.4 °F - 24.8 °F 86% 29.80 in 2.0 mi Calm Calm - 0.00 in Snow Light Snow
1:15 AM 28.4 °F - 24.8 °F 86% 29.80 in 1.8 mi Calm Calm - 0.00 in Snow Light Snow
1:28 AM 28.4 °F - 24.8 °F 86% 29.80 in 2.0 mi Calm Calm - 0.00 in Snow Light Snow
1:37 AM 28.4 °F - 24.8 °F 86% 29.80 in 1.2 mi Calm Calm - 0.01 in Snow Light Snow
1:53 AM 28.0 °F - 25.0 °F 88% 29.85 in 2.0 mi Calm Calm - 0.01 in Snow Light Snow
2:08 AM 28.4 °F - 24.8 °F 86% 29.79 in 2.5 mi Calm Calm - 0.00 in Snow Light Snow
2:22 AM 28.4 °F - 24.8 °F 86% 29.80 in 4.0 mi Calm Calm - 0.00 in   Overcast
2:53 AM 27.0 °F - 24.1 °F 89% 29.86 in 2.5 mi Calm Calm - 0.00 in Snow Light Snow
3:17 AM 26.6 °F - 23.0 °F 86% 29.79 in 3.0 mi Calm Calm - 0.00 in   Overcast
3:41 AM 23.0 °F - 19.4 °F 86% 29.80 in 4.0 mi Calm Calm - 0.00 in   Mostly Cloudy
3:53 AM 23.0 °F - 19.9 °F 88% 29.86 in 5.0 mi Calm Calm - 0.00 in   Mostly Cloudy
4:08 AM 24.8 °F - 21.2 °F 86% 29.80 in 2.0 mi Calm Calm - N/A   Overcast
4:21 AM 24.8 °F - 23.0 °F 93% 29.80 in 4.0 mi Calm Calm - N/A   Overcast
4:48 AM 24.8 °F - 21.2 °F 86% 29.81 in 5.0 mi Calm Calm - N/A   Overcast
4:53 AM 24.1 °F - 21.9 °F 91% 29.86 in 5.0 mi Calm Calm - N/A   Overcast
5:53 AM 25.0 °F - 23.0 °F 92% 29.88 in 5.0 mi Calm Calm - N/A   Overcast
6:53 AM 23.0 °F - 19.0 °F 85% 29.88 in 5.0 mi Calm Calm - N/A   Overcast
7:10 AM 21.2 °F - 19.4 °F 93% 29.83 in 6.0 mi Calm Calm - N/A   Overcast
7:20 AM 21.2 °F - 19.4 °F 93% 29.84 in 5.0 mi Calm Calm - N/A   Overcast
7:53 AM 23.0 °F - 19.9 °F 88% 29.91 in 4.0 mi Calm Calm - N/A   Overcast
8:17 AM 23.0 °F - 21.2 °F 93% 29.87 in 4.0 mi Calm Calm - N/A   Overcast
8:53 AM 23.0 °F - 21.9 °F 96% 29.92 in 4.0 mi Calm Calm - N/A   Overcast
9:53 AM 28.0 °F - 25.0 °F 88% 29.92 in 5.0 mi Calm Calm - N/A   Overcast
10:53 AM 30.9 °F - 27.0 °F 85% 29.93 in 8.0 mi Calm Calm - N/A   Overcast
11:04 AM 30.2 °F - 24.8 °F 80% 29.88 in 10.0 mi Calm Calm - N/A   Overcast
11:53 AM 32.0 °F - 26.1 °F 79% 29.92 in 10.0 mi Calm Calm - N/A   Mostly Cloudy
12:09 PM 33.8 °F - 26.6 °F 75% 29.85 in 10.0 mi Calm Calm - N/A   Scattered Clouds
12:53 PM 33.1 °F - 26.1 °F 75% 29.90 in 10.0 mi Calm Calm - N/A   Mostly Cloudy
1:04 PM 33.8 °F 28.6 °F 26.6 °F 75% 29.85 in 10.0 mi SSW 5.8 mph - N/A   Mostly Cloudy
1:18 PM 33.8 °F 29.6 °F 26.6 °F 75% 29.84 in 10.0 mi Variable 4.6 mph - N/A   Scattered Clouds
1:53 PM 34.0 °F 31.0 °F 27.0 °F 75% 29.89 in 10.0 mi Variable 3.5 mph - N/A   Clear
2:53 PM 35.1 °F - 28.9 °F 78% 29.88 in 10.0 mi Calm Calm - N/A   Clear
3:53 PM 33.1 °F 30.0 °F 28.9 °F 85% 29.91 in 10.0 mi Variable 3.5 mph - N/A   Clear
4:53 PM 30.0 °F - 28.0 °F 92% 29.89 in 3.0 mi Calm Calm - N/A   Partly Cloudy
5:53 PM 28.9 °F - 26.1 °F 89% 29.87 in 6.0 mi Calm Calm - N/A   Clear
6:30 PM 26.6 °F - 24.8 °F 93% 29.83 in 2.5 mi Calm Calm - N/A   Clear
6:41 PM 28.4 °F 24.6 °F 26.6 °F 93% 29.85 in 5.0 mi WSW 3.5 mph - N/A   Clear
6:53 PM 28.9 °F - 27.0 °F 92% 29.90 in 6.0 mi Calm Calm - N/A   Scattered Clouds
7:01 PM 28.4 °F - 26.6 °F 93% 29.84 in 6.0 mi Calm Calm - N/A   Mostly Cloudy
7:53 PM 30.0 °F - 28.0 °F 92% 29.87 in 8.0 mi Calm Calm - N/A   Overcast
8:53 PM 28.9 °F - 26.1 °F 89% 29.86 in 5.0 mi Calm Calm - N/A   Overcast
9:30 PM 30.2 °F 24.3 °F 26.6 °F 86% 29.78 in 9.0 mi SSE 5.8 mph - N/A   Overcast
9:53 PM 30.9 °F 25.2 °F 28.0 °F 89% 29.81 in 10.0 mi SE 5.8 mph - N/A   Overcast
10:53 PM 30.0 °F 26.5 °F 27.0 °F 88% 29.77 in 7.0 mi ESE 3.5 mph - N/A   Overcast
11:53 PM 30.0 °F 24.1 °F 27.0 °F 88% 29.71 in 6.0 mi SE 5.8 mph - N/A   Overcast